#timestamp,LO_Frequency,Hit,StdDev 
1627610415.8,286047000.2,N
1627610435.6,286046999.7,N
1627610455.4,286047000.3,N
1627610475.3,286046999.8,N
1627610495.1,286046999.7,N
1627610515.8,286047002.0,N
1627610535.7,286047002.4,N
1627610555.5,286047002.1,N
1627610575.4,286047002.7,N
1627610595.2,286047000.1,N
1627610615.0,286047002.7,N
1627610615.9,286047002.7,N
1627610635.8,286047002.7,N
1627610655.6,286047001.0,N
1627610675.4,286047000.4,N
1627610695.3,286047001.0,N
1627610715.1,286047000.3,N
1627610735.9,286046999.9,N
1627610755.7,286047000.3,N
1627610775.5,286047000.3,N
1627610795.4,286047000.6,N
1627610815.2,286047000.0,N
1627610835.0,286047000.4,N
1627610835.9,286047000.4,N
1627610855.8,286047000.9,N
1627610875.6,286047000.4,N
1627610895.5,286047000.4,N
1627610915.3,286047000.1,N
1627610935.1,286047000.7,N
1627610955.9,286046999.7,N
1627610975.7,286047000.4,N
1627610995.5,286047000.2,N
1627611015.4,286046999.8,N
1627611035.2,286047001.0,N
1627611055.1,286047000.6,N
1627611056.0,286047000.6,N
1627611075.8,286047000.1,N
1627611095.6,286046999.7,N
1627611115.5,286047002.8,Y
1627611135.3,286047000.0,P
1627611155.2,286047000.7,N
1627611175.9,286047000.1,N
1627611195.7,286047000.1,N
1627611215.6,286047000.2,N
1627611235.4,286047000.6,N
1627611255.2,286046998.4,Y
1627611275.1,286046998.7,P
1627611276.0,286046998.7,N
1627611295.8,286046998.1,N
1627611315.7,286047000.4,N
1627611335.5,286047000.9,N
1627611355.3,286046999.9,N
1627611375.2,286047002.2,N
1627611395.9,286047001.8,N
1627611415.7,286047001.7,N
1627611435.6,286047003.5,N
1627611455.4,286047005.6,Y
1627611475.2,286047006.0,P
1627611495.1,286047006.0,N
1627611496.0,286047006.0,N
1627611515.8,286047003.0,N
1627611535.7,286047004.1,N
1627611555.5,286047004.2,N
1627611575.3,286047003.7,N
1627611595.2,286047003.8,N
1627611615.0,286047003.2,N
1627611615.9,286047003.2,N
1627611635.8,286047005.7,Y
1627611655.6,286047000.4,P
1627611675.4,286047000.8,N
1627611695.3,286046998.2,N
1627611715.1,286047001.2,N
1627611735.8,286046999.8,N
1627611755.7,286047000.1,N
1627611775.5,286047000.3,N
1627611795.4,286046999.8,N
1627611815.2,286047002.4,N
1627611835.0,286047002.5,N
1627611835.9,286047002.5,N
1627611855.8,286046999.8,N
1627611875.6,286047000.4,N
1627611895.4,286047000.4,N
1627611915.3,286047001.0,N
1627611935.1,286047000.9,N
1627611955.8,286046998.2,N
1627611975.7,286046998.5,N
1627611995.5,286046998.7,N
1627612015.4,286046998.3,N
1627612035.2,286046998.7,N
1627612055.0,286046999.0,N
1627612055.9,286046999.0,N
1627612075.8,286046999.6,N
1627612095.6,286046997.2,N
1627612115.5,286046999.6,N
1627612135.3,286046996.6,N
1627612155.1,286046997.5,N
1627612175.9,286046995.5,N
1627612195.7,286046995.9,N
1627612215.5,286046996.3,N
1627612235.4,286046993.4,Y
1627612255.2,286046996.0,P
1627612275.1,286046996.3,N
1627612276.0,286046996.3,N
1627612295.8,286046996.3,N
1627612315.6,286046995.8,Y
1627612335.5,286046996.8,P
1627612355.3,286046997.7,P
1627612375.1,286046996.8,P
1627612395.9,286046999.5,N
1627612415.7,286046996.6,Y
1627612435.6,286047000.0,P
1627612455.4,286046999.7,N
1627612475.2,286047000.1,N
1627612495.1,286047000.2,N
1627612496.0,286047000.2,N
1627612515.8,286047000.5,N
1627612535.6,286047000.4,N
1627612555.5,286047000.6,N
1627612575.3,286047000.4,N
1627612595.2,286047000.0,N
1627612615.0,286047000.5,N
1627612615.9,286047000.5,N
1627612635.8,286046999.9,N
1627612655.6,286047002.7,Y
1627612675.4,286047000.1,P
1627612695.3,286047001.0,P
1627612715.1,286047001.0,N
1627612735.8,286047000.0,N
1627612755.7,286047000.2,N
1627612775.5,286047000.5,N
1627612795.4,286047000.2,N
1627612815.2,286046999.8,N
1627612835.0,286047000.6,N
1627612835.9,286047000.6,N
1627612855.8,286047002.5,Y
1627612875.6,286047002.4,P
1627612895.4,286047002.4,N
1627612915.3,286047001.5,N
1627612935.1,286047002.3,N
1627612955.9,286047002.7,Y
1627612975.7,286047001.1,P
1627612995.5,286047000.7,N
1627613015.4,286047001.1,N
1627613035.2,286046998.5,Y
1627613055.1,286046998.8,P
1627613056.0,286046998.8,N
1627613075.8,286046998.6,N
1627613095.6,286046996.9,N
1627613115.5,286046996.5,N
1627613135.3,286046999.3,N
1627613155.1,286046996.6,N
1627613175.9,286046996.6,N
1627613195.7,286046999.0,N
1627613215.5,286046999.4,N
1627613235.4,286047001.2,N
1627613255.2,286046998.4,N
1627613275.1,286046998.3,N
1627613276.0,286046998.3,N
1627613295.8,286046998.4,N
1627613315.6,286046999.1,N
1627613335.5,286047000.8,N
1627613355.3,286047001.2,N
1627613375.2,286047000.8,N
1627613395.9,286047001.0,N
1627613415.7,286046996.9,N
1627613435.6,286046999.2,N
1627613455.4,286046998.4,N
1627613475.2,286046998.6,N
1627613495.1,286047000.9,N
1627613496.0,286047000.9,N
1627613515.8,286047000.7,N
1627613535.7,286046998.8,N
1627613555.5,286046998.2,N
1627613575.3,286047000.6,N
1627613595.2,286047000.9,N
1627613615.0,286046998.8,N
1627613615.9,286046998.8,N
1627613635.8,286046998.5,N
1627613655.6,286047000.8,N
1627613675.4,286047001.1,N
1627613695.3,286046999.3,N
1627613715.1,286046998.4,N
1627613735.9,286046998.9,N
1627613755.7,286046998.4,N
1627613775.5,286046998.4,N
1627613795.4,286046999.5,N
1627613815.2,286046999.3,N
1627613835.0,286046998.5,N
1627613835.9,286046998.5,N
1627613855.8,286047001.1,N
1627613875.6,286046998.1,N
1627613895.5,286046998.3,N
1627613915.3,286046998.9,N
1627613935.1,286047001.2,N
1627613955.9,286047000.8,N
1627613975.7,286046998.3,N
1627613995.6,286047001.1,N
